Home > Weather > Eastbourne > Past weeks

Flag for United Kingdom Past Weather in Eastbourne, England, United Kingdom — Yesterday and Last 2 Weeks

Now
60 °F

Cool.


Feels Like: 60 °F
Forecast: 61 / 67 °F
Wind: 5 mph from West

Location: Herstmonceux

Current Time: Jul 28, 2016 at 3:57:26 AM

Latest Report: Jul 28, 2016 at 3:00 AM


Visibility: 16 mi

Pressure: 29.97 "Hg

Humidity: 93%

Dew Point: 58 °F

Location of EastbourneLocation

Past Weather in Eastbourne — Graph

°F

Eastbourne Temperature Yesterday

Maximum temperature yesterday: 68 °F (at 5:00 PM)
Minimum temperature yesterday: 61 °F (at 10:00 PM)
Average temperature yesterday: 63 °F

High & Low Weather Summary for the Past Weeks

 TemperatureHumidityPressure
High89 °F (Jul 19, 5:00 PM)100% (Jul 23, 6:00 AM)30.34 "Hg (Jul 23, 6:00 AM)
Low52 °F (Jul 15, 6:00 AM)42% (Jul 19, 5:00 PM)29.79 "Hg (Jul 20, 5:00 AM)
Average65 °F80%30.12 "Hg
* Reported Jul 13 2:00 AM — Jul 28 2:00 AM, Eastbourne, Weather by CustomWeather, © 2016

Note: Actual official high and low records may vary slightly from our data, if they occured in-between our weather recording intervals... More about our weather records

Advertising

Eastbourne Weather History for the Previous 24 Hours

Scroll right to see more
 ConditionsComfort  
Time TempWeatherWind HumidityBarometerVisibility
2:00 AM
Thu, Jul 28
60 °FCool.5 mph97%29.98 "Hg12 mi
1:00 AM60 °FFog.2 mph99%29.98 "Hg2 mi
12:00 AM60 °FFog.2 mph98%29.99 "Hg3 mi
11:00 PM
Wed, Jul 27
61 °FFog.3 mph97%29.99 "Hg5 mi
10:00 PM61 °FFog.1 mph95%29.99 "Hg6 mi
9:00 PM63 °FMild.3 mph92%30.00 "Hg8 mi
8:00 PM64 °FMild.6 mph90%29.98 "Hg11 mi
7:00 PM66 °FMild.7 mph84%29.99 "Hg18 mi
6:00 PM67 °FMild.8 mph85%29.99 "Hg11 mi
5:00 PM68 °FMild.8 mph83%30.00 "Hg11 mi
4:00 PM67 °FMild.8 mph84%30.00 "Hg12 mi
3:00 PM65 °FMild.8 mph86%30.01 "Hg12 mi
2:00 PM65 °FSmoke.10 mph88%30.01 "Hg6 mi
1:00 PM65 °FMild.8 mph94%30.01 "Hg9 mi
12:00 PM63 °FMild.8 mph98%30.01 "Hg2 mi
11:00 AM62 °FCool.9 mph99%30.02 "Hg2 mi
10:00 AM61 °FLots of rain. Cloudy.10 mph98%30.02 "Hg2 mi
9:00 AM62 °FCool.10 mph93%30.02 "Hg7 mi
8:00 AM62 °FCool.9 mph95%30.02 "Hg7 mi
7:00 AM62 °FCool.8 mph93%30.03 "Hg7 mi
6:00 AM62 °FCool.8 mph92%30.03 "Hg9 mi
5:00 AM62 °FCool.8 mph93%30.04 "Hg9 mi
4:00 AM62 °FCool.6 mph93%30.06 "Hg9 mi
3:00 AM62 °FCool.7 mph93%30.08 "Hg8 mi
Weather by CustomWeather, © 2016

See weather overviewHow to use our weather pages